| time (UTC) | temp F | wind direction | speed MPH | gust MPH | rain 1hr in | rain 24hr in | rain mn in | humidity % | barometer mb |
| 20260906102205 | 62 | 90 | 0.0 | 0.0 | 0.00 | 0.00 | 0.00 | 99 | 1014.6 |
| 20260906101700 | 63 | 90 | 0.0 | 0.0 | 0.00 | 0.00 | 0.00 | 99 | 1015.1 |
| 20260906101155 | 63 | 90 | 0.0 | 0.0 | 0.00 | 0.00 | 0.00 | 99 | 1014.9 |
| 20260906100650 | 63 | 89 | 0.0 | 0.0 | 0.00 | 0.00 | 0.00 | 99 | 1014.9 |
| 20260906100145 | 63 | 90 | 0.0 | 0.0 | 0.00 | 0.00 | 0.00 | 99 | 1014.9 |
| 20260906095639 | 63 | 89 | 0.0 | 0.0 | 0.00 | 0.00 | 0.00 | 99 | 1014.7 |
| 20260906095129 | 63 | 91 | 0.0 | 0.0 | 0.00 | 0.00 | 0.00 | 99 | 1014.5 |
| 20260906094628 | 63 | 93 | 0.0 | 0.0 | 0.00 | 0.00 | 0.00 | 99 | 1014.5 |
| 20260906094124 | 63 | 93 | 0.0 | 0.0 | 0.00 | 0.00 | 0.00 | 99 | 1014.4 |
| 20260906093620 | 63 | 94 | 0.0 | 0.0 | 0.00 | 0.00 | 0.00 | 99 | 1014.6 |
| 20260906093120 | 63 | 93 | 0.0 | 0.0 | 0.00 | 0.00 | 0.00 | 99 | 1014.6 |
| 20260906092615 | 63 | 93 | 0.0 | 0.0 | 0.00 | 0.00 | 0.00 | 99 | 1014.6 |
| 20260906092110 | 63 | 93 | 0.0 | 0.0 | 0.00 | 0.00 | 0.00 | 99 | 1014.7 |
| 20260906091606 | 63 | 93 | 0.0 | 0.0 | 0.00 | 0.00 | 0.00 | 99 | 1014.7 |
| 20260906091102 | 64 | 93 | 0.0 | 0.0 | 0.00 | 0.00 | 0.00 | 99 | 1014.5 |
| 20260906090557 | 64 | 93 | 0.0 | 0.0 | 0.00 | 0.00 | 0.00 | 99 | 1014.6 |
| 20260906090056 | 64 | 90 | 0.0 | 0.0 | 0.00 | 0.00 | 0.00 | 99 | 1014.5 |
| 20260906085555 | 64 | 89 | 0.0 | 0.0 | 0.00 | 0.00 | 0.00 | 99 | 1014.4 |
| 20260906085050 | 64 | 90 | 0.0 | 0.0 | 0.00 | 0.00 | 0.00 | 99 | 1014.3 |
| 20260906084545 | 64 | 90 | 0.0 | 0.0 | 0.00 | 0.00 | 0.00 | 99 | 1014.3 |
| 20260906084044 | 64 | 90 | 0.0 | 0.0 | 0.00 | 0.00 | 0.00 | 99 | 1014.4 |
| 20260906083540 | 64 | 90 | 0.0 | 0.0 | 0.00 | 0.00 | 0.00 | 99 | 1014.3 |
| 20260906083039 | 64 | 89 | 0.0 | 0.0 | 0.00 | 0.00 | 0.00 | 99 | 1014.4 |
| 20260906082534 | 64 | 89 | 0.0 | 0.0 | 0.00 | 0.00 | 0.00 | 99 | 1014.2 |
| 20260906082030 | 65 | 89 | 0.0 | 0.0 | 0.00 | 0.00 | 0.00 | 99 | 1014.1 |
| 20260906081526 | 65 | 90 | 0.0 | 0.0 | 0.00 | 0.00 | 0.00 | 99 | 1014.3 |
| 20260906081021 | 65 | 90 | 0.0 | 0.0 | 0.00 | 0.00 | 0.00 | 99 | 1014.4 |
| 20260906080517 | 65 | 89 | 0.0 | 0.0 | 0.00 | 0.00 | 0.00 | 99 | 1014.2 |
| 20260906080014 | 65 | 90 | 0.0 | 0.0 | 0.00 | 0.00 | 0.00 | 99 | 1014.2 |
| 20260906075508 | 65 | 90 | 0.0 | 0.0 | 0.00 | 0.00 | 0.00 | 99 | 1014.2 |
| 20260906075003 | 65 | 90 | 0.0 | 0.0 | 0.00 | 0.00 | 0.00 | 99 | 1014.4 |
| 20260906074457 | 65 | 90 | 0.0 | 0.0 | 0.00 | 0.00 | 0.00 | 99 | 1014.2 |
| 20260906073955 | 66 | 90 | 0.0 | 0.0 | 0.00 | 0.00 | 0.00 | 99 | 1014.3 |
| 20260906073450 | 66 | 89 | 0.0 | 0.0 | 0.00 | 0.00 | 0.00 | 99 | 1014.1 |
| 20260906072946 | 66 | 89 | 0.0 | 0.0 | 0.00 | 0.00 | 0.00 | 99 | 1014.0 |
| 20260906072441 | 66 | 90 | 0.0 | 0.0 | 0.00 | 0.00 | 0.00 | 99 | 1013.9 |
| 20260906071938 | 66 | 90 | 0.0 | 0.0 | 0.00 | 0.00 | 0.00 | 99 | 1014.1 |
| 20260906071433 | 66 | 90 | 0.0 | 0.0 | 0.00 | 0.00 | 0.00 | 99 | 1013.9 |
| 20260906070929 | 66 | 90 | 0.0 | 0.0 | 0.00 | 0.00 | 0.00 | 99 | 1014.2 |
| 20260906070425 | 66 | 90 | 0.0 | 0.0 | 0.00 | 0.00 | 0.00 | 99 | 1014.1 |
| 20260906065920 | 67 | 89 | 0.0 | 0.0 | 0.00 | 0.00 | 0.00 | 99 | 1014.1 |
| 20260906065415 | 67 | 89 | 0.0 | 0.0 | 0.00 | 0.00 | 0.00 | 99 | 1014.1 |
| 20260906064910 | 67 | 91 | 0.0 | 0.0 | 0.00 | 0.00 | 0.00 | 99 | 1014.4 |
| 20260906064406 | 67 | 90 | 0.0 | 0.0 | 0.00 | 0.00 | 0.00 | 99 | 1014.2 |
| 20260906063901 | 67 | 89 | 0.0 | 0.0 | 0.00 | 0.00 | 0.00 | 99 | 1014.3 |
| 20260906063356 | 67 | 91 | 0.0 | 0.0 | 0.00 | 0.00 | 0.00 | 99 | 1014.4 |
| 20260906062851 | 67 | 90 | 0.0 | 0.0 | 0.00 | 0.00 | 0.00 | 99 | 1014.2 |
| 20260906062350 | 67 | 90 | 0.0 | 0.0 | 0.00 | 0.00 | 0.00 | 99 | 1014.3 |
| 20260906061846 | 68 | 95 | 0.0 | 0.0 | 0.00 | 0.00 | 0.00 | 99 | 1014.2 |
| 20260906061342 | 68 | 90 | 0.0 | 0.0 | 0.00 | 0.00 | 0.00 | 99 | 1014.2 |
| 20260906060836 | 68 | 90 | 0.0 | 0.0 | 0.00 | 0.00 | 0.00 | 99 | 1014.2 |
| 20260906060334 | 68 | 90 | 0.0 | 0.0 | 0.00 | 0.00 | 0.00 | 99 | 1014.2 |
| 20260906055830 | 68 | 89 | 0.0 | 1.0 | 0.00 | 0.00 | 0.00 | 99 | 1014.1 |
| 20260906055326 | 68 | 90 | 0.0 | 0.0 | 0.00 | 0.00 | 0.00 | 99 | 1014.2 |
| 20260906054820 | 69 | 122 | 0.0 | 1.0 | 0.00 | 0.00 | 0.00 | 99 | 1014.0 |
| 20260906054315 | 69 | 89 | 0.0 | 1.0 | 0.00 | 0.00 | 0.00 | 99 | 1014.1 |
| 20260906053812 | 69 | 90 | 0.0 | 0.0 | 0.00 | 0.00 | 0.00 | 99 | 1013.8 |
| 20260906053307 | 69 | 90 | 0.0 | 0.0 | 0.00 | 0.00 | 0.00 | 99 | 1013.8 |
| 20260906052802 | 69 | 91 | 0.0 | 0.0 | 0.00 | 0.00 | 0.00 | 99 | 1013.6 |
| 20260906052259 | 69 | 90 | 0.0 | 0.0 | 0.00 | 0.00 | 0.00 | 99 | 1013.9 |
| 20260906051756 | 70 | 91 | 0.0 | 0.0 | 0.00 | 0.00 | 0.00 | 99 | 1013.7 |
| 20260906051255 | 70 | 88 | 0.0 | 0.0 | 0.00 | 0.00 | 0.00 | 99 | 1013.7 |
| 20260906050750 | 70 | 89 | 0.0 | 0.0 | 0.00 | 0.00 | 0.00 | 99 | 1013.7 |
| 20260906050246 | 70 | 89 | 0.0 | 0.0 | 0.00 | 0.00 | 0.00 | 99 | 1013.7 |
| 20260906045744 | 70 | 93 | 0.0 | 0.0 | 0.00 | 0.00 | 0.00 | 99 | 1013.5 |
| 20260906045239 | 71 | 92 | 0.0 | 1.0 | 0.00 | 0.00 | 0.00 | 99 | 1013.6 |
| 20260906044735 | 71 | 95 | 0.0 | 1.0 | 0.00 | 0.00 | 0.00 | 99 | 1013.3 |
| 20260906044229 | 71 | 91 | 0.0 | 0.0 | 0.00 | 0.00 | 0.00 | 99 | 1013.4 |
| 20260906043725 | 71 | 90 | 0.0 | 0.0 | 0.00 | 0.00 | 0.00 | 99 | 1013.3 |
| 20260906043222 | 71 | 91 | 0.0 | 0.0 | 0.00 | 0.00 | 0.00 | 99 | 1013.4 |
| 20260906042721 | 72 | 90 | 0.0 | 0.0 | 0.00 | 0.00 | 0.00 | 99 | 1013.3 |
| 20260906042220 | 72 | 94 | 0.0 | 0.0 | 0.00 | 0.00 | 0.00 | 99 | 1013.3 |
| 20260906041716 | 72 | 90 | 0.0 | 0.0 | 0.00 | 0.00 | 0.00 | 99 | 1013.3 |
| 20260906041211 | 72 | 79 | 1.0 | 1.0 | 0.00 | 0.00 | 0.00 | 98 | 1013.5 |
| 20260906040706 | 72 | 90 | 0.0 | 0.0 | 0.00 | 0.00 | 0.00 | 98 | 1013.4 |
| 20260906040202 | 72 | 90 | 0.0 | 0.0 | 0.00 | 0.00 | 0.00 | 98 | 1013.4 |
| 20260906035657 | 72 | 94 | 0.0 | 0.0 | 0.00 | 0.02 | 0.02 | 98 | 1013.4 |
| 20260906035153 | 72 | 92 | 0.0 | 0.0 | 0.00 | 0.02 | 0.02 | 98 | 1013.4 |
| 20260906034647 | 72 | 92 | 0.0 | 0.0 | 0.00 | 0.02 | 0.02 | 98 | 1013.2 |
| 20260906034141 | 72 | 90 | 0.0 | 0.0 | 0.00 | 0.02 | 0.02 | 98 | 1013.4 |
| 20260906033638 | 72 | 90 | 0.0 | 0.0 | 0.00 | 0.02 | 0.02 | 98 | 1013.3 |
| 20260906033132 | 72 | 91 | 0.0 | 0.0 | 0.00 | 0.02 | 0.02 | 97 | 1013.0 |
| 20260906032629 | 72 | 93 | 0.0 | 0.0 | 0.00 | 0.02 | 0.02 | 97 | 1013.3 |
| 20260906032128 | 72 | 90 | 0.0 | 0.0 | 0.00 | 0.02 | 0.02 | 97 | 1013.4 |
| 20260906031624 | 72 | 90 | 0.0 | 0.0 | 0.00 | 0.02 | 0.02 | 97 | 1013.3 |
| 20260906031119 | 72 | 90 | 0.0 | 0.0 | 0.00 | 0.02 | 0.02 | 97 | 1013.3 |
| 20260906030618 | 72 | 91 | 0.0 | 0.0 | 0.00 | 0.02 | 0.02 | 97 | 1013.3 |
| 20260906030114 | 72 | 90 | 0.0 | 0.0 | 0.00 | 0.02 | 0.02 | 97 | 1013.4 |
| 20260906025613 | 72 | 90 | 0.0 | 0.0 | 0.00 | 0.02 | 0.02 | 96 | 1013.3 |
| 20260906025112 | 72 | 90 | 0.0 | 0.0 | 0.00 | 0.02 | 0.02 | 96 | 1013.4 |
| 20260906024607 | 72 | 91 | 0.0 | 0.0 | 0.00 | 0.02 | 0.02 | 96 | 1013.2 |
| 20260906024101 | 72 | 99 | 0.0 | 0.0 | 0.00 | 0.02 | 0.02 | 96 | 1013.1 |
| 20260906023557 | 72 | 90 | 0.0 | 0.0 | 0.00 | 0.02 | 0.02 | 96 | 1013.3 |
| 20260906023051 | 72 | 90 | 0.0 | 1.0 | 0.00 | 0.02 | 0.02 | 96 | 1013.3 |
| 20260906022547 | 72 | 90 | 0.0 | 0.0 | 0.00 | 0.02 | 0.02 | 95 | 1013.2 |
| 20260906022042 | 72 | 93 | 0.0 | 0.0 | 0.00 | 0.02 | 0.02 | 95 | 1013.1 |
| 20260906021538 | 73 | 90 | 0.0 | 0.0 | 0.00 | 0.02 | 0.02 | 95 | 1013.0 |
| 20260906021037 | 73 | 92 | 0.0 | 1.0 | 0.00 | 0.02 | 0.02 | 95 | 1013.0 |
| 20260906020536 | 73 | 89 | 0.0 | 1.0 | 0.00 | 0.02 | 0.02 | 95 | 1013.1 |
| 20260906020030 | 73 | 93 | 0.0 | 0.0 | 0.00 | 0.02 | 0.02 | 94 | 1013.1 |
| 20260906015529 | 73 | 87 | 1.0 | 2.0 | 0.00 | 0.02 | 0.02 | 94 | 1013.1 |
| 20260906015030 | 73 | 89 | 0.0 | 1.0 | 0.00 | 0.02 | 0.02 | 94 | 1012.8 |
| 20260906014525 | 73 | 92 | 0.0 | 0.0 | 0.00 | 0.02 | 0.02 | 94 | 1012.7 |
| 20260906014020 | 73 | 92 | 0.0 | 1.0 | 0.00 | 0.02 | 0.02 | 95 | 1012.9 |
| 20260906013516 | 73 | 86 | 0.0 | 0.0 | 0.00 | 0.02 | 0.02 | 95 | 1012.8 |
| 20260906013012 | 73 | 88 | 0.0 | 1.0 | 0.00 | 0.02 | 0.02 | 94 | 1012.8 |
| 20260906012507 | 73 | 90 | 0.0 | 1.0 | 0.00 | 0.02 | 0.02 | 94 | 1012.6 |
| 20260906012006 | 73 | 92 | 0.0 | 0.0 | 0.00 | 0.02 | 0.02 | 94 | 1012.4 |
| 20260906011502 | 73 | 92 | 0.0 | 2.0 | 0.00 | 0.02 | 0.02 | 94 | 1012.4 |
| 20260906010956 | 74 | 78 | 0.0 | 1.0 | 0.00 | 0.02 | 0.02 | 94 | 1012.2 |
| 20260906010452 | 74 | 89 | 0.0 | 1.0 | 0.00 | 0.02 | 0.02 | 93 | 1012.4 |
| 20260906005948 | 74 | 128 | 0.0 | 1.0 | 0.00 | 0.02 | 0.02 | 93 | 1012.6 |
| 20260906005441 | 74 | 91 | 0.0 | 0.0 | 0.00 | 0.02 | 0.02 | 93 | 1012.3 |
| 20260906004940 | 74 | 91 | 0.0 | 0.0 | 0.00 | 0.02 | 0.02 | 93 | 1012.1 |
| 20260906004439 | 74 | 84 | 0.0 | 1.0 | 0.00 | 0.02 | 0.02 | 93 | 1012.2 |
| 20260906003936 | 74 | 107 | 1.0 | 1.0 | 0.00 | 0.02 | 0.02 | 94 | 1012.4 |
| 20260906003436 | 74 | 91 | 0.0 | 1.0 | 0.00 | 0.02 | 0.02 | 93 | 1012.2 |
| 20260906002931 | 74 | 92 | 0.0 | 0.0 | 0.00 | 0.02 | 0.02 | 93 | 1012.0 |
| 20260906002431 | 74 | 95 | 0.0 | 1.0 | 0.00 | 0.02 | 0.02 | 94 | 1012.1 |
| 20260906001926 | 74 | 94 | 0.0 | 1.0 | 0.00 | 0.02 | 0.02 | 95 | 1012.1 |
| 20260906001422 | 74 | 96 | 1.0 | 1.0 | 0.00 | 0.02 | 0.02 | 94 | 1011.9 |
| 20260906000917 | 74 | 91 | 0.0 | 2.0 | 0.00 | 0.02 | 0.02 | 94 | 1011.8 |
| 20260906000412 | 74 | 90 | 0.0 | 2.0 | 0.00 | 0.02 | 0.02 | 94 | 1011.8 |
| 20260905235907 | 74 | 90 | 0.0 | 2.0 | 0.00 | 0.02 | 0.02 | 94 | 1011.7 |
| 20260905235407 | 75 | 108 | 1.0 | 2.0 | 0.00 | 0.02 | 0.02 | 93 | 1011.6 |
| 20260905234902 | 75 | 113 | 0.0 | 3.0 | 0.00 | 0.02 | 0.02 | 93 | 1011.6 |
| 20260905234357 | 75 | 91 | 0.0 | 0.0 | 0.00 | 0.02 | 0.02 | 93 | 1011.8 |
| 20260905233847 | 75 | 90 | 0.0 | 2.0 | 0.00 | 0.02 | 0.02 | 93 | 1011.6 |
| 20260905233341 | 76 | 75 | 2.0 | 5.0 | 0.00 | 0.02 | 0.02 | 93 | 1011.5 |
| 20260905232841 | 76 | 90 | 0.0 | 1.0 | 0.00 | 0.02 | 0.02 | 93 | 1011.7 |
| 20260905232337 | 76 | 83 | 0.0 | 2.0 | 0.00 | 0.02 | 0.02 | 93 | 1011.8 |
| 20260905231832 | 76 | 87 | 0.0 | 3.0 | 0.00 | 0.02 | 0.02 | 93 | 1011.6 |
| 20260905231333 | 77 | 87 | 0.0 | 1.0 | 0.00 | 0.02 | 0.02 | 92 | 1011.5 |
| 20260905230829 | 77 | 90 | 0.0 | 0.0 | 0.00 | 0.02 | 0.02 | 92 | 1011.5 |
| 20260905230327 | 78 | 95 | 1.0 | 3.0 | 0.00 | 0.02 | 0.02 | 92 | 1011.2 |
| 20260905225826 | 78 | 87 | 0.0 | 2.0 | 0.00 | 0.02 | 0.02 | 92 | 1011.1 |
| 20260905225322 | 78 | 90 | 1.0 | 2.0 | 0.00 | 0.02 | 0.02 | 92 | 1011.2 |
| 20260905224822 | 79 | 111 | 0.0 | 6.0 | 0.00 | 0.02 | 0.02 | 91 | 1011.2 |
| 20260905224317 | 79 | 133 | 1.0 | 2.0 | 0.00 | 0.02 | 0.02 | 91 | 1011.1 |
| 20260905223812 | 79 | 76 | 1.0 | 1.0 | 0.00 | 0.02 | 0.02 | 91 | 1011.4 |
| 20260905223310 | 79 | 110 | 1.0 | 2.0 | 0.00 | 0.02 | 0.02 | 91 | 1011.0 |
| 20260905222805 | 79 | 136 | 1.0 | 5.0 | 0.00 | 0.02 | 0.02 | 90 | 1011.0 |
| 20260905222306 | 80 | 62 | 1.0 | 5.0 | 0.00 | 0.02 | 0.02 | 90 | 1010.8 |
| 20260905221800 | 79 | 90 | 0.0 | 2.0 | 0.00 | 0.02 | 0.02 | 90 | 1010.9 |
| 20260905221256 | 79 | 117 | 3.0 | 3.0 | 0.00 | 0.02 | 0.02 | 90 | 1010.6 |
| 20260905220752 | 80 | 91 | 0.0 | 2.0 | 0.00 | 0.02 | 0.02 | 89 | 1010.7 |
| 20260905220248 | 80 | 82 | 1.0 | 2.0 | 0.00 | 0.02 | 0.02 | 89 | 1010.6 |
| 20260905215747 | 81 | 128 | 0.0 | 1.0 | 0.00 | 0.02 | 0.02 | 89 | 1010.5 |
| 20260905215243 | 80 | 89 | 0.0 | 1.0 | 0.00 | 0.02 | 0.02 | 88 | 1010.5 |
| 20260905214739 | 80 | 83 | 0.0 | 2.0 | 0.00 | 0.02 | 0.02 | 87 | 1010.4 |
| 20260905214235 | 81 | 196 | 1.0 | 2.0 | 0.00 | 0.02 | 0.02 | 86 | 1010.6 |
| 20260905213730 | 82 | 312 | 2.0 | 3.0 | 0.00 | 0.02 | 0.02 | 84 | 1010.4 |
| 20260905213226 | 82 | 90 | 0.0 | 1.0 | 0.00 | 0.02 | 0.02 | 84 | 1010.3 |
| 20260905212720 | 82 | 131 | 0.0 | 2.0 | 0.00 | 0.02 | 0.02 | 84 | 1010.4 |
| 20260905212219 | 82 | 93 | 1.0 | 2.0 | 0.00 | 0.02 | 0.02 | 84 | 1010.4 |
| 20260905211714 | 82 | 83 | 0.0 | 1.0 | 0.00 | 0.02 | 0.02 | 85 | 1010.4 |
| 20260905211209 | 83 | 78 | 0.0 | 2.0 | 0.00 | 0.02 | 0.02 | 84 | 1010.5 |
| 20260905210706 | 83 | 110 | 1.0 | 2.0 | 0.00 | 0.02 | 0.02 | 84 | 1010.5 |
| 20260905210206 | 83 | 117 | 0.0 | 2.0 | 0.00 | 0.02 | 0.02 | 83 | 1010.3 |
| 20260905205704 | 84 | 96 | 0.0 | 1.0 | 0.00 | 0.02 | 0.02 | 83 | 1010.4 |
| 20260905205159 | 84 | 81 | 0.0 | 2.0 | 0.00 | 0.02 | 0.02 | 82 | 1010.6 |
| 20260905204659 | 84 | 96 | 2.0 | 2.0 | 0.00 | 0.02 | 0.02 | 83 | 1010.5 |
| 20260905204154 | 83 | 96 | 0.0 | 2.0 | 0.00 | 0.02 | 0.02 | 84 | 1010.2 |
| 20260905203648 | 82 | 63 | 0.0 | 2.0 | 0.00 | 0.02 | 0.02 | 84 | 1010.2 |
| 20260905203144 | 83 | 95 | 1.0 | 3.0 | 0.00 | 0.02 | 0.02 | 84 | 1010.5 |
| 20260905202639 | 84 | 89 | 0.0 | 1.0 | 0.00 | 0.02 | 0.02 | 83 | 1010.4 |
| 20260905202135 | 85 | 100 | 3.0 | 8.0 | 0.00 | 0.02 | 0.02 | 81 | 1010.5 |
| 20260905201630 | 84 | 51 | 1.0 | 2.0 | 0.00 | 0.02 | 0.02 | 81 | 1010.5 |
| 20260905201130 | 83 | 96 | 0.0 | 1.0 | 0.00 | 0.02 | 0.02 | 83 | 1010.4 |
| 20260905200625 | 84 | 118 | 2.0 | 3.0 | 0.00 | 0.02 | 0.02 | 82 | 1010.5 |
| 20260905200120 | 85 | 86 | 1.0 | 2.0 | 0.00 | 0.02 | 0.02 | 81 | 1010.4 |
| 20260905195614 | 84 | 92 | 2.0 | 3.0 | 0.00 | 0.02 | 0.02 | 82 | 1010.8 |
| 20260905195109 | 84 | 79 | 1.0 | 1.0 | 0.00 | 0.02 | 0.02 | 84 | 1010.5 |
| 20260905194608 | 84 | 91 | 1.0 | 1.0 | 0.00 | 0.02 | 0.02 | 82 | 1010.5 |
| 20260905194108 | 85 | 68 | 2.0 | 6.0 | 0.00 | 0.02 | 0.02 | 82 | 1010.6 |
| 20260905193603 | 85 | 92 | 0.0 | 1.0 | 0.00 | 0.02 | 0.02 | 83 | 1010.5 |
| 20260905193058 | 84 | 75 | 0.0 | 1.0 | 0.00 | 0.02 | 0.02 | 84 | 1010.8 |
| 20260905192553 | 85 | 95 | 3.0 | 5.0 | 0.00 | 0.02 | 0.02 | 82 | 1010.6 |
| 20260905192050 | 87 | 88 | 0.0 | 1.0 | 0.00 | 0.02 | 0.02 | 79 | 1010.6 |
| 20260905191547 | 86 | 161 | 1.0 | 3.0 | 0.00 | 0.02 | 0.02 | 79 | 1010.5 |
| 20260905191042 | 86 | 103 | 1.0 | 1.0 | 0.00 | 0.02 | 0.02 | 81 | 1010.7 |
| 20260905190540 | 86 | 101 | 0.0 | 3.0 | 0.00 | 0.02 | 0.02 | 79 | 1010.4 |
| 20260905190039 | 86 | 96 | 0.0 | 3.0 | 0.00 | 0.02 | 0.02 | 78 | 1010.6 |
| 20260905185539 | 85 | 197 | 4.0 | 6.0 | 0.00 | 0.02 | 0.02 | 79 | 1010.6 |
| 20260905185038 | 85 | 104 | 3.0 | 5.0 | 0.00 | 0.02 | 0.02 | 80 | 1010.5 |
| 20260905184533 | 85 | 307 | 3.0 | 5.0 | 0.00 | 0.02 | 0.02 | 81 | 1010.7 |
| 20260905184032 | 86 | 108 | 0.0 | 1.0 | 0.00 | 0.02 | 0.02 | 81 | 1010.7 |
| 20260905183532 | 85 | 88 | 0.0 | 2.0 | 0.00 | 0.02 | 0.02 | 84 | 1010.7 |
| 20260905183027 | 86 | 178 | 1.0 | 2.0 | 0.00 | 0.02 | 0.02 | 82 | 1010.9 |
| 20260905182527 | 85 | 61 | 3.0 | 5.0 | 0.00 | 0.02 | 0.02 | 82 | 1010.6 |
| 20260905182027 | 84 | 334 | 1.0 | 5.0 | 0.00 | 0.02 | 0.02 | 82 | 1010.7 |
| 20260905181522 | 84 | 130 | 1.0 | 2.0 | 0.00 | 0.02 | 0.02 | 83 | 1010.8 |
| 20260905181021 | 86 | 91 | 1.0 | 2.0 | 0.00 | 0.02 | 0.02 | 82 | 1011.1 |
| 20260905180516 | 85 | 85 | 0.0 | 2.0 | 0.00 | 0.02 | 0.02 | 81 | 1010.8 |
| 20260905180012 | 84 | 78 | 1.0 | 5.0 | 0.00 | 0.02 | 0.02 | 85 | 1010.9 |
| 20260905175510 | 84 | 86 | 0.0 | 2.0 | 0.00 | 0.02 | 0.02 | 84 | 1010.9 |
| 20260905175006 | 85 | 297 | 1.0 | 2.0 | 0.00 | 0.02 | 0.02 | 85 | 1010.9 |
| 20260905174501 | 82 | 104 | 0.0 | 1.0 | 0.00 | 0.02 | 0.02 | 88 | 1010.8 |
| 20260905173957 | 84 | 83 | 1.0 | 5.0 | 0.00 | 0.02 | 0.02 | 85 | 1010.7 |
| 20260905173453 | 86 | 85 | 1.0 | 3.0 | 0.00 | 0.02 | 0.02 | 83 | 1011.0 |
| 20260905172948 | 85 | 90 | 0.0 | 1.0 | 0.00 | 0.02 | 0.02 | 86 | 1010.9 |
| 20260905172447 | 83 | 26 | 2.0 | 2.0 | 0.00 | 0.02 | 0.02 | 87 | 1011.1 |
| 20260905171942 | 84 | 85 | 0.0 | 0.0 | 0.00 | 0.02 | 0.02 | 84 | 1011.2 |
| 20260905171439 | 85 | 91 | 0.0 | 2.0 | 0.00 | 0.02 | 0.02 | 83 | 1011.1 |
| 20260905170935 | 85 | 53 | 0.0 | 1.0 | 0.00 | 0.02 | 0.02 | 83 | 1010.9 |
| 20260905170430 | 86 | 108 | 0.0 | 1.0 | 0.00 | 0.02 | 0.02 | 82 | 1011.1 |
| 20260905165930 | 84 | 92 | 1.0 | 2.0 | 0.00 | 0.02 | 0.02 | 84 | 1011.2 |
| 20260905165425 | 84 | 88 | 0.0 | 3.0 | 0.00 | 0.02 | 0.02 | 85 | 1011.1 |
| 20260905164920 | 84 | 113 | 0.0 | 1.0 | 0.00 | 0.02 | 0.02 | 86 | 1011.3 |
| 20260905164414 | 82 | 84 | 1.0 | 3.0 | 0.00 | 0.02 | 0.02 | 87 | 1011.2 |
| 20260905163909 | 82 | 92 | 2.0 | 2.0 | 0.00 | 0.02 | 0.02 | 87 | 1011.0 |
| 20260905163406 | 83 | 92 | 0.0 | 2.0 | 0.00 | 0.02 | 0.02 | 86 | 1011.1 |
| 20260905162902 | 83 | 103 | 0.0 | 3.0 | 0.00 | 0.02 | 0.02 | 85 | 1011.1 |
| 20260905162356 | 82 | 111 | 2.0 | 3.0 | 0.00 | 0.02 | 0.02 | 85 | 1011.3 |
| 20260905161851 | 83 | 94 | 1.0 | 2.0 | 0.00 | 0.02 | 0.02 | 87 | 1011.2 |
| 20260905161350 | 83 | 58 | 2.0 | 5.0 | 0.00 | 0.02 | 0.02 | 85 | 1011.2 |
| 20260905160848 | 83 | 74 | 4.0 | 5.0 | 0.00 | 0.02 | 0.02 | 86 | 1011.1 |
| 20260905160343 | 83 | 92 | 0.0 | 6.0 | 0.00 | 0.02 | 0.02 | 86 | 1011.0 |
| 20260905155837 | 83 | 140 | 2.0 | 3.0 | 0.00 | 0.02 | 0.02 | 86 | 1011.2 |
| 20260905155331 | 82 | 93 | 0.0 | 1.0 | 0.00 | 0.02 | 0.02 | 88 | 1011.2 |
| 20260905154830 | 82 | 94 | 0.0 | 1.0 | 0.00 | 0.02 | 0.02 | 88 | 1011.0 |
| 20260905154326 | 81 | 37 | 2.0 | 2.0 | 0.00 | 0.02 | 0.02 | 88 | 1011.1 |
| 20260905153821 | 82 | 106 | 0.0 | 1.0 | 0.00 | 0.02 | 0.02 | 88 | 1011.0 |
| 20260905153318 | 80 | 116 | 1.0 | 2.0 | 0.00 | 0.02 | 0.02 | 91 | 1011.5 |
| 20260905152818 | 79 | 37 | 1.0 | 2.0 | 0.00 | 0.02 | 0.02 | 93 | 1011.3 |
| 20260905152316 | 79 | 136 | 0.0 | 3.0 | 0.00 | 0.02 | 0.02 | 92 | 1011.2 |
| 20260905151812 | 78 | 88 | 1.0 | 2.0 | 0.00 | 0.02 | 0.02 | 95 | 1011.0 |
| 20260905151307 | 78 | 96 | 0.0 | 1.0 | 0.00 | 0.02 | 0.02 | 95 | 1011.2 |
| 20260905150802 | 78 | 86 | 0.0 | 1.0 | 0.00 | 0.02 | 0.02 | 96 | 1011.3 |
| 20260905150301 | 77 | 90 | 0.0 | 0.0 | 0.00 | 0.02 | 0.02 | 97 | 1011.1 |
| 20260905145758 | 77 | 97 | 0.0 | 1.0 | 0.00 | 0.02 | 0.02 | 97 | 1011.3 |
| 20260905145253 | 76 | 89 | 0.0 | 0.0 | 0.00 | 0.02 | 0.02 | 98 | 1011.2 |
| 20260905144751 | 76 | 85 | 0.0 | 0.0 | 0.00 | 0.02 | 0.02 | 98 | 1011.0 |
| 20260905144248 | 76 | 89 | 0.0 | 1.0 | 0.00 | 0.02 | 0.02 | 99 | 1011.2 |
| 20260905143746 | 75 | 92 | 0.0 | 1.0 | 0.00 | 0.02 | 0.02 | 98 | 1011.2 |
| 20260905143241 | 75 | 77 | 0.0 | 1.0 | 0.00 | 0.02 | 0.02 | 99 | 1011.4 |
| 20260905142739 | 75 | 88 | 0.0 | 0.0 | 0.00 | 0.02 | 0.02 | 99 | 1011.3 |
| 20260905142234 | 75 | 81 | 1.0 | 1.0 | 0.00 | 0.02 | 0.02 | 99 | 1011.5 |
| 20260905141730 | 75 | 98 | 0.0 | 0.0 | 0.00 | 0.02 | 0.02 | 99 | 1011.2 |
| 20260905141226 | 75 | 86 | 0.0 | 1.0 | 0.00 | 0.02 | 0.02 | 99 | 1011.4 |
| 20260905140721 | 75 | 90 | 0.0 | 1.0 | 0.00 | 0.02 | 0.02 | 99 | 1011.2 |
| 20260905140220 | 74 | 90 | 0.0 | 1.0 | 0.00 | 0.02 | 0.02 | 99 | 1011.2 |
| 20260905135715 | 74 | 94 | 0.0 | 0.0 | 0.00 | 0.02 | 0.02 | 99 | 1011.2 |
| 20260905135211 | 74 | 87 | 0.0 | 0.0 | 0.00 | 0.02 | 0.02 | 99 | 1011.2 |
| 20260905134710 | 74 | 94 | 0.0 | 0.0 | 0.00 | 0.02 | 0.02 | 99 | 1011.0 |
| 20260905134209 | 74 | 88 | 0.0 | 0.0 | 0.00 | 0.02 | 0.02 | 99 | 1011.0 |
| 20260905133704 | 73 | 92 | 0.0 | 0.0 | 0.00 | 0.02 | 0.02 | 99 | 1010.9 |
| 20260905133159 | 73 | 89 | 0.0 | 0.0 | 0.00 | 0.02 | 0.02 | 99 | 1011.0 |
| 20260905132658 | 73 | 88 | 0.0 | 0.0 | 0.00 | 0.02 | 0.02 | 99 | 1010.9 |
| 20260905132153 | 73 | 89 | 0.0 | 0.0 | 0.00 | 0.02 | 0.02 | 99 | 1010.8 |
| 20260905131643 | 73 | 105 | 0.0 | 0.0 | 0.00 | 0.02 | 0.02 | 99 | 1011.0 |
| 20260905131138 | 73 | 88 | 0.0 | 0.0 | 0.00 | 0.02 | 0.02 | 99 | 1011.0 |
| 20260905130633 | 73 | 88 | 0.0 | 0.0 | 0.00 | 0.02 | 0.02 | 99 | 1011.0 |
| 20260905130133 | 73 | 88 | 0.0 | 0.0 | 0.00 | 0.02 | 0.02 | 99 | 1010.8 |
| 20260905125632 | 73 | 95 | 0.0 | 0.0 | 0.00 | 0.02 | 0.02 | 99 | 1011.0 |
| 20260905125128 | 72 | 88 | 0.0 | 0.0 | 0.00 | 0.02 | 0.02 | 99 | 1010.7 |
| 20260905124624 | 72 | 89 | 0.0 | 0.0 | 0.00 | 0.02 | 0.02 | 99 | 1010.9 |
| 20260905124120 | 73 | 92 | 0.0 | 0.0 | 0.00 | 0.02 | 0.02 | 99 | 1010.8 |
| 20260905123610 | 72 | 91 | 0.0 | 0.0 | 0.00 | 0.02 | 0.02 | 99 | 1010.8 |
| 20260905123107 | 72 | 90 | 0.0 | 0.0 | 0.00 | 0.02 | 0.02 | 99 | 1010.6 |
| 20260905122606 | 72 | 99 | 0.0 | 0.0 | 0.00 | 0.02 | 0.02 | 99 | 1010.7 |
| 20260905122101 | 72 | 89 | 0.0 | 0.0 | 0.00 | 0.02 | 0.02 | 99 | 1010.5 |
| 20260905121555 | 72 | 88 | 0.0 | 0.0 | 0.00 | 0.02 | 0.02 | 99 | 1010.6 |
| 20260905121051 | 72 | 89 | 0.0 | 0.0 | 0.00 | 0.02 | 0.02 | 99 | 1010.5 |
| 20260905120550 | 72 | 89 | 0.0 | 0.0 | 0.00 | 0.02 | 0.02 | 99 | 1010.2 |
| 20260905120046 | 72 | 88 | 0.0 | 0.0 | 0.00 | 0.02 | 0.02 | 99 | 1010.3 |
| 20260905115544 | 72 | 96 | 0.0 | 0.0 | 0.00 | 0.02 | 0.02 | 99 | 1010.2 |
| 20260905115039 | 72 | 98 | 0.0 | 0.0 | 0.00 | 0.02 | 0.02 | 99 | 1009.8 |
| 20260905114538 | 72 | 88 | 0.0 | 0.0 | 0.00 | 0.02 | 0.02 | 99 | 1009.7 |
| 20260905114038 | 72 | 89 | 0.0 | 0.0 | 0.00 | 0.02 | 0.02 | 99 | 1009.9 |
| 20260905113532 | 72 | 89 | 0.0 | 0.0 | 0.00 | 0.02 | 0.02 | 99 | 1010.1 |
| 20260905113028 | 72 | 89 | 0.0 | 0.0 | 0.00 | 0.02 | 0.02 | 99 | 1010.1 |
| 20260905112523 | 72 | 89 | 0.0 | 0.0 | 0.00 | 0.02 | 0.02 | 99 | 1010.2 |
| 20260905112018 | 72 | 95 | 0.0 | 0.0 | 0.00 | 0.02 | 0.02 | 99 | 1009.7 |
| 20260905111513 | 72 | 105 | 0.0 | 0.0 | 0.00 | 0.02 | 0.02 | 99 | 1009.8 |
| 20260905111013 | 72 | 94 | 0.0 | 0.0 | 0.00 | 0.02 | 0.02 | 99 | 1009.8 |
| 20260905110512 | 72 | 92 | 0.0 | 0.0 | 0.00 | 0.02 | 0.02 | 99 | 1009.4 |
| 20260905110007 | 72 | 92 | 0.0 | 0.0 | 0.00 | 0.02 | 0.02 | 99 | 1009.3 |
| 20260905105501 | 72 | 92 | 0.0 | 0.0 | 0.00 | 0.02 | 0.02 | 99 | 1009.3 |
| 20260905105000 | 72 | 106 | 0.0 | 0.0 | 0.00 | 0.02 | 0.02 | 99 | 1009.4 |
| 20260905104457 | 72 | 102 | 0.0 | 0.0 | 0.00 | 0.02 | 0.02 | 99 | 1009.5 |
| 20260905103951 | 72 | 102 | 0.0 | 0.0 | 0.00 | 0.02 | 0.02 | 99 | 1009.2 |
| 20260905103446 | 72 | 101 | 0.0 | 0.0 | 0.00 | 0.02 | 0.02 | 99 | 1009.3 |
| 20260905102942 | 72 | 101 | 0.0 | 0.0 | 0.00 | 0.02 | 0.02 | 99 | 1009.4 |
| 20260905102438 | 72 | 94 | 0.0 | 0.0 | 0.00 | 0.02 | 0.02 | 99 | 1009.3 |